UAE34E LGAV-KEWR

Flight info

Callsign UAE34E
Flight time N/A
Altitude 34000
Route KRO UG33 NEVRA UZ507 TSL UL617 MAKED DCT LONTA UL608 DOLEV DCT GUBOK DCT GOLVA DCT LAMSI L604 RODIS DCT GASKA DCT MAPOX DCT RAVLO Y70 OTBED L60 PENIL/N0476F360 M144 BAGSO DCT VENER/M083F360 DCT 5530N02000W 5630N03000W 5630N04000W 55N050W DCT LOMSI/N0483F380 N672A ANATI DCT IMORI DCT HANAA FLOSI4
Aircraft B77W/H-SDE1E2E3FGHIJ2J3J4J5M1RWXY/LB1D1

Departure

Time N/A
Airport Athens Eleftherios Venizelos International Airport (LGAV)

Arrival

Time 2026-04-24 14:18
Airport Newark Liberty International Airport (KEWR)
Time Latitude Longitude Altitude Speed Heading
2026-04-24 13:54 42.27749 -74.01287 31492 ft 487 kts 206°
2026-04-24 13:54 42.24537 -74.02710 31016 ft 484 kts 206°
2026-04-24 13:54 42.21345 -74.04122 30555 ft 481 kts 206°
2026-04-24 13:54 42.18176 -74.05521 30076 ft 479 kts 206°
2026-04-24 13:55 42.15010 -74.06918 29535 ft 477 kts 207°
2026-04-24 13:55 42.11865 -74.08308 28998 ft 474 kts 207°
2026-04-24 13:55 42.08738 -74.09686 28478 ft 470 kts 206°
2026-04-24 13:55 42.05633 -74.11052 27959 ft 467 kts 206°
2026-04-24 13:56 42.02615 -74.12376 27459 ft 463 kts 206°
2026-04-24 13:56 41.99556 -74.13715 26963 ft 459 kts 206°
2026-04-24 13:56 41.96534 -74.15039 26475 ft 455 kts 207°
2026-04-24 13:56 41.93528 -74.16356 26004 ft 452 kts 207°
2026-04-24 13:57 41.90561 -74.17657 25537 ft 449 kts 207°
2026-04-24 13:57 41.87570 -74.18965 25067 ft 446 kts 206°
2026-04-24 13:57 41.84642 -74.20243 24608 ft 442 kts 206°
2026-04-24 13:57 41.81722 -74.21515 24150 ft 439 kts 206°
2026-04-24 13:58 41.78819 -74.22780 23715 ft 436 kts 206°
2026-04-24 13:58 41.75945 -74.24033 23233 ft 433 kts 206°
2026-04-24 13:58 41.73085 -74.25280 22709 ft 430 kts 206°
2026-04-24 13:58 41.70288 -74.26497 22226 ft 428 kts 206°
2026-04-24 13:59 41.67454 -74.27727 21704 ft 425 kts 206°
2026-04-24 13:59 41.64650 -74.28944 21224 ft 421 kts 207°
2026-04-24 13:59 41.61889 -74.30139 21007 ft 411 kts 207°
2026-04-24 13:59 41.59205 -74.31298 20939 ft 400 kts 207°
2026-04-24 14:00 41.56568 -74.32440 20842 ft 397 kts 207°
2026-04-24 14:00 41.53949 -74.33577 20382 ft 397 kts 207°
2026-04-24 14:00 41.51328 -74.34713 19910 ft 396 kts 207°
2026-04-24 14:00 41.48696 -74.35850 19451 ft 394 kts 207°
2026-04-24 14:01 41.46098 -74.36971 18992 ft 392 kts 207°
2026-04-24 14:01 41.43504 -74.38089 18543 ft 390 kts 207°
2026-04-24 14:01 41.40918 -74.39202 18088 ft 388 kts 207°
2026-04-24 14:01 41.38387 -74.40292 17596 ft 387 kts 207°
2026-04-24 14:02 41.35823 -74.41395 17097 ft 385 kts 207°
2026-04-24 14:02 41.33282 -74.42487 16599 ft 383 kts 207°
2026-04-24 14:02 41.30736 -74.43580 16115 ft 382 kts 207°
2026-04-24 14:02 41.28224 -74.44657 15646 ft 380 kts 207°
2026-04-24 14:03 41.25700 -74.45739 15171 ft 379 kts 207°
2026-04-24 14:03 41.23200 -74.46808 14716 ft 378 kts 206°
2026-04-24 14:03 41.20703 -74.47874 14330 ft 375 kts 206°
2026-04-24 14:03 41.18394 -74.48860 13996 ft 371 kts 206°
2026-04-24 14:04 41.15947 -74.49907 13606 ft 368 kts 206°
2026-04-24 14:04 41.13488 -74.50958 13200 ft 364 kts 206°
2026-04-24 14:04 41.11123 -74.51964 12803 ft 360 kts 206°
2026-04-24 14:04 41.08742 -74.52976 12421 ft 356 kts 206°
2026-04-24 14:05 41.06382 -74.53921 12034 ft 356 kts 201°
2026-04-24 14:05 41.03901 -74.54383 11645 ft 360 kts 192°
2026-04-24 14:05 41.01402 -74.54563 11290 ft 360 kts 189°
2026-04-24 14:05 40.98898 -74.54693 10891 ft 358 kts 189°
2026-04-24 14:06 40.96415 -74.54844 10486 ft 356 kts 190°
2026-04-24 14:06 40.93948 -74.55030 10121 ft 353 kts 191°
2026-04-24 14:06 40.91513 -74.55238 9763 ft 350 kts 191°
2026-04-24 14:06 40.89093 -74.55459 9377 ft 348 kts 191°
2026-04-24 14:07 40.86675 -74.55682 8987 ft 347 kts 191°
2026-04-24 14:07 40.84263 -74.55905 8584 ft 345 kts 190°
2026-04-24 14:07 40.81896 -74.56055 8197 ft 345 kts 186°
2026-04-24 14:07 40.79508 -74.55963 7827 ft 345 kts 182°
2026-04-24 14:08 40.77118 -74.55787 7463 ft 343 kts 181°
2026-04-24 14:08 40.74730 -74.55612 7101 ft 341 kts 181°
2026-04-24 14:08 40.72358 -74.55458 6732 ft 340 kts 181°
2026-04-24 14:08 40.69995 -74.55323 6341 ft 337 kts 181°
2026-04-24 14:09 40.67659 -74.55197 5933 ft 331 kts 181°
2026-04-24 14:09 40.65379 -74.55074 5426 ft 322 kts 180°
2026-04-24 14:09 40.63219 -74.54792 4938 ft 312 kts 174°
2026-04-24 14:09 40.61105 -74.54325 4448 ft 302 kts 172°
2026-04-24 14:10 40.59080 -74.53797 3875 ft 297 kts 169°
2026-04-24 14:10 40.57088 -74.53211 3288 ft 288 kts 168°
2026-04-24 14:10 40.55194 -74.52604 2966 ft 270 kts 166°
2026-04-24 14:10 40.53440 -74.52003 2817 ft 250 kts 162°
2026-04-24 14:11 40.52017 -74.50799 2748 ft 247 kts 124°
2026-04-24 14:11 40.51465 -74.48792 2730 ft 228 kts 87°
2026-04-24 14:11 40.51514 -74.44753 2722 ft 221 kts 86°
2026-04-24 14:12 40.51505 -74.42734 2759 ft 223 kts 87°
2026-04-24 14:12 40.51502 -74.40683 2748 ft 223 kts 86°
2026-04-24 14:12 40.51506 -74.38659 2726 ft 219 kts 86°
2026-04-24 14:12 40.51515 -74.36678 2765 ft 221 kts 86°
2026-04-24 14:13 40.51525 -74.34649 2761 ft 219 kts 86°
2026-04-24 14:13 40.51536 -74.32677 2743 ft 213 kts 86°
2026-04-24 14:13 40.51546 -74.30739 2764 ft 211 kts 85°
2026-04-24 14:13 40.51682 -74.28857 2740 ft 204 kts 64°
2026-04-24 14:14 40.52487 -74.27392 2773 ft 198 kts 32°
2026-04-24 14:14 40.53639 -74.26440 2802 ft 194 kts 27°
2026-04-24 14:14 40.55952 -74.24890 2640 ft 188 kts 23°
2026-04-24 14:15 40.57117 -74.24156 2390 ft 182 kts 23°
2026-04-24 14:15 40.58182 -74.23483 2179 ft 168 kts 24°
2026-04-24 14:15 40.59177 -74.22855 1937 ft 149 kts 24°
2026-04-24 14:15 40.60097 -74.22275 1760 ft 145 kts 24°
2026-04-24 14:16 40.61008 -74.21697 1571 ft 145 kts 26°
2026-04-24 14:16 40.61894 -74.21137 1363 ft 139 kts 26°
2026-04-24 14:16 40.62753 -74.20592 1192 ft 136 kts 26°
2026-04-24 14:17 40.64420 -74.19538 829 ft 132 kts 26°
2026-04-24 14:17 40.65239 -74.19018 666 ft 134 kts 27°
2026-04-24 14:17 40.66940 -74.17959 311 ft 134 kts 28°
2026-04-24 14:18 40.67784 -74.17425 148 ft 138 kts 29°
2026-04-24 14:18 40.68640 -74.16872 34 ft 137 kts 29°
2026-04-24 14:18 40.69404 -74.16377 28 ft 102 kts 24°
2026-04-24 14:18 40.69735 -74.16181 26 ft 27 kts
2026-04-24 14:19 40.69797 -74.16217 25 ft 13 kts 315°
2026-04-24 14:19 40.69853 -74.16357 28 ft 14 kts 294°
2026-04-24 14:19 40.69895 -74.16480 25 ft 15 kts 291°
2026-04-24 14:19 40.69904 -74.16567 27 ft 8 kts 260°
2026-04-24 14:20 40.69869 -74.16619 28 ft 8 kts 207°
2026-04-24 14:20 40.69814 -74.16655 27 ft 9 kts 206°
2026-04-24 14:20 40.69753 -74.16694 26 ft 10 kts 206°
2026-04-24 14:20 40.69689 -74.16736 28 ft 10 kts 206°
2026-04-24 14:21 40.69624 -74.16777 29 ft 11 kts 206°
2026-04-24 14:21 40.69552 -74.16823 27 ft 12 kts 206°
2026-04-24 14:21 40.69472 -74.16874 29 ft 13 kts 206°
2026-04-24 14:21 40.69387 -74.16928 29 ft 14 kts 206°
2026-04-24 14:22 40.69258 -74.17010 28 ft 22 kts 206°
2026-04-24 14:22 40.69117 -74.17099 28 ft 22 kts 206°
2026-04-24 14:22 40.68842 -74.17275 30 ft 18 kts 206°
2026-04-24 14:23 40.68729 -74.17346 30 ft 18 kts 206°
2026-04-24 14:23 40.68618 -74.17417 28 ft 16 kts 205°
2026-04-24 14:23 40.68520 -74.17491 28 ft 17 kts 216°
2026-04-24 14:23 40.68415 -74.17605 29 ft 16 kts 223°
2026-04-24 14:24 40.68423 -74.17659 31 ft 7 kts 342°
2026-04-24 14:24 40.68482 -74.17627 30 ft 16 kts 25°
2026-04-24 14:24 40.68641 -74.17527 29 ft 27 kts 25°
2026-04-24 14:24 40.68800 -74.17426 29 ft 21 kts 26°
2026-04-24 14:25 40.68835 -74.17403 29 ft 5 kts 26°
2026-04-24 14:25 40.68881 -74.17395 28 ft 5 kts 321°
2026-04-24 14:25 40.68906 -74.17437 29 ft 6 kts 311°
2026-04-24 14:25 40.68929 -74.17468 29 ft 1 kts 315°
2026-04-24 14:26 40.68930 -74.17469 29 ft 0 kts 315°